Other Surface Observations
Issued by NWS Tucson, AZ

Home | Current Version | Previous Version | Text Only | Print | Product List | Glossary On
Versions: 1 2 3 4 5 6 7 8 9 10 11 12 13 14 15 16 17 18 19 20 21 22 23 24 25 26 27 28 29 30 31 32 33 34 35 36 37 38 39 40 41 42 43 44 45 46 47 48 49 50
592
SXUS55 KTWC 241617
OSOTWC

WEATHER ROUNDUP FOR SOUTHEAST ARIZONA
NATIONAL WEATHER SERVICE TUCSON AZ
915 AM MST TUE MAY 24 2016

AZZ504>506-514-241715-
LOCATION       SKY/WX    TMP DP  RH WIND       PRES   REMARKS
TUCSON         SUNNY     77  27  15 S9        29.96R
DAVIS-MONTHAN  SUNNY     76  29  17 W8        29.95R
CHILDRENS PARK N/A      N/A N/A  20 SE5               PIMA CO DEQ
ALVERNON/22ND  N/A       72 N/A N/A SE3               PIMA CO DEQ
CHERRY/GLENN   N/A      N/A N/A N/A N/A               PIMA CO DEQ
TANGERINE      N/A       72 N/A N/A S7                PIMA CO DEQ
CONTL RANCH    N/A       73  27  18 E1                PIMA CO DEQ
GRANT/1ST      N/A       73  27  18 SE2               PIMA CO DEQ
CRAYCROFT/22ND N/A       73  26  17 N/A               PIMA CO DEQ
GOLFLINKS/KOLB N/A      N/A N/A N/A N/A               PIMA CO DEQ
AJO/12TH       N/A       72  30  21 S5                PIMA CO DEQ
SAGUARO EAST   N/A       23 -17  15 N3                PIMA CO DEQ
FAIRGROUNDS    N/A       72 N/A N/A S0                PIMA CO DEQ
SAGUARO        N/A       77  27  16 W3                *SABINO CYN
SAN CARLOS     N/A       74  25  16 S4                *SAN CARLOS
GREEN VALLEY   N/A       71  25  18 SW11              PIMA CO DEQ
HORSE CAMP CYN N/A       68  24  19 W2                *ARAVAIPA CYN
RINCON MTNS    N/A       55  20  25 SW4G10            *NR MANNING CAMP
$$

AZZ509>511-241715-
LOCATION       SKY/WX    TMP DP  RH WIND       PRES   REMARKS
SAFFORD        SUNNY     76  25  15 NE6       29.93F
STRAY HORSE    N/A       55  23  29 SW5G15            *
TRAIL CABIN    N/A       65  24  21 W4G10             *N OF GRANVILLE
BLACK HILLS    NOT AVBL
DRY LAKE       N/A       57  21  24 S8G13             *NATANES MTNS
NOON CREEK     N/A       71  27  19 NE6G10            *PINALENO MTNS
COLUMBINE      N/A       42  16  35 SW6G11            *PINALENO MTNS
GUTHRIE        N/A       60  24  25 SW11G20           *SW OF GUTHRIE
$$

AZZ502-503-513-241715-
LOCATION       SKY/WX    TMP DP  RH WIND       PRES   REMARKS
NOGALES        SUNNY     73  32  22 SW17G24   30.01R
SELLS          N/A       73  21  14 W6G10             *
SASABE         N/A       72  27  19 SW10G21           *ALTAR VLY
HOPKINS        N/A       59  30  33 S5G16             *SANTA RITA MTNS
CARR CYN       N/A       70  22  16 NW5G13            *W OF HEREFORD
$$

AZZ507-508-512-241715-
LOCATION       SKY/WX    TMP DP  RH WIND       PRES   REMARKS
SIERRA VISTA   SUNNY     72  23  16 VRB6      30.05R
DOUGLAS        SUNNY     71  26  18 S9G21     30.03S
EMPIRE MTNS    NOT AVBL
MULESHOE RANCH N/A       69  21  16 S5G11             *PRESERVE
HEADQUARTERS   NOT AVBL
$$

.............................NOTES.............................
THIS IS AN AUTOMATED COLLECTIVE WITH MINIMAL QUALITY CONTROL.
PIMA CO DEQ SITES HAVE NONSTANDARD WIND SENSOR HEIGHTS.
PIMA CO DEQ SITES DO NOT REPORT WIND GUSTS.
* INDICATES WIND SENSORS LOCATED AT 20 FEET INSTEAD OF 33 FEET.
..............................KEY..............................
SKY/WX - SKY CONDITION/WEATHER
TMP    - TEMPERATURE IN FAHRENHEIT
DP     - DEWPOINT IN FAHRENHEIT
RH     - RELATIVE HUMIDITY IN PERCENT
WIND   - DIRECTION AND SPEED IN MILES PER HOUR (MPH)
VRB    - VARIABLE WIND DIRECTION
PRES   - MEAN SEA LEVEL PRESSURE IN INCHES OF MERCURY
         F - FALLING PRESSURE   R - RISING PRESSURE
         S - STEADY PRESSURE
VSB    - VISIBILITY IN MILES
HX     - HEAT INDEX IN FAHRENHEIT
WCI    - WIND CHILL INDEX IN FAHRENHEIT
N/A    - NOT AVAILABLE
AFB    - AIR FORCE BASE
         DAVIS-MONTHAN IS DAVIS-MONTHAN AIR FORCE BASE
CYN    - CANYON
MTNS   - MOUNTAINS
NCA    - NATIONAL CONSERVATION AREA
NR     - NEAR
VLY    - VALLEY
CONTL  - CONTINENTAL
PIMA CO DEQ - PIMA COUNTY DEPT OF ENVIRONMENTAL QUALITY



USA.gov is the U.S. government's official web portal to all federal, state and local government web resources and services.